Orbital Elements
Epoch 2021 Mar. 7.0 TT = JDT 2459280.5
T 2021 Mar. 20.09871 TT Rudenko
q 2.2321620 (2000.0) P Q
n 0.14226246 Peri. 284.00349 +0.91422122 -0.37557033
a 3.6342029 Node 98.23216 +0.40500618 +0.83483500
e 0.3857905 Incl. 8.84278 +0.01302155 +0.40248908
P 6.93
From 718 observations 2000 Aug. 5-2020 Sept. 15, mean residual 0".9.
|